Regional Weather Roundup
Issued by NWS

Home | Current Version | Previous Version | Graphics & Text | Print | Product List | Glossary On
Versions: 1 2 3 4 5 6 7 8 9 10 11 12 13 14 15 16 17 18 19 20 21 22 23 24 25 26 27 28 29 30 31 32 33 34 35 36 37 38 39 40 41 42 43 44 45 46 47 48 49 50
000
ASUS43 KLMK 271902
RWRKY
KENTUCKY REGIONAL WEATHER ROUNDUP
NATIONAL WEATHER SERVICE LOUISVILLE KY
200 PM EST FRI FEB 27 2015

NOTE "FAIR" INDICATES FEW OR NO CLOUDS BELOW 12,000 FEET
WITH NO SIGNIFICANT WEATHER AND/OR OBSTRUCTIONS TO VISIBILITY.

KYZ001>023-026-027-061>063-070>075-272000-
WESTERN AND SOUTH CENTRAL KENTUCKY

CITY           SKY/WX    TMP DP  RH WIND       PRES   REMARKS
PADUCAH        MOSUNNY   24  11  57 NE7       30.60F WCI  16
HENDERSON      CLOUDY    23  18  80 NW3       30.63F
OWENSBORO      MOSUNNY   23   8  52 N7        30.62F WCI  15
HOPKINSVILLE   MOSUNNY   24  10  56 NE8       30.57F WCI  15
BOWLING GREEN  SUNNY     28   7  41 NE8       30.58F WCI  20
GLASGOW        NOT AVBL
$$

KYZ024-025-028>034-038-045-046-053-272000-
NORTH CENTRAL KENTUCKY

CITY           SKY/WX    TMP DP  RH WIND       PRES   REMARKS
LOUISVILLE/SDF MOSUNNY   26   6  42 N5        30.60F WCI  20
LOUISVILLE/LOU MOSUNNY   23   4  44 E5        30.60F WCI  17
FORT KNOX      SUNNY     22   4  44 W7        30.55F WCI  14
$$

KYZ035>037-039>044-047>052-055>060-089>105-272000-
NORTHEAST KENTUCKY

CITY           SKY/WX    TMP DP  RH WIND       PRES   REMARKS
LEXINGTON      MOSUNNY   21   6  52 N8        30.56F WCI  11
COVINGTON      PTSUNNY   20   1  43 NE6       30.57F WCI  12
FRANKFORT      MOSUNNY   22   1  40 VRB5      30.56F WCI  16
$$

KYZ054-064>069-076>088-106>120-272000-
SOUTHEAST KENTUCKY

CITY           SKY/WX    TMP DP  RH WIND       PRES   REMARKS
JACKSON        SUNNY     24   4  42 MISG      30.49F
LONDON         SUNNY     26   5  40 CALM      30.50F
SOMERSET       NOT AVBL
MIDDLESBORO    SUNNY     28  12  51 NE8       30.48F WCI  19
MONTICELLO     CLEAR     25  10  52 VRB5      30.56F WCI  19
$$




USA.gov is the U.S. government's official web portal to all federal, state and local government web resources and services.